AAL156 KSEA-EGLL

Flight info

Callsign AAL156
Flight time N/A
Altitude 33000
Route ALPSE DCT YDC DCT ROMRA DCT 5730N11000W/N0487F350 6330N10000W 67N090W 69N080W 70N070W/M084F370 DCT ADSAM DCT 70N060W 69N050W 68N040W 66N030W 63N020W DCT ERAKA/N0480F370 DCT ETSOM DCT AKOMU DCT VAMEB DCT NUGRA
Aircraft B772/H-SDE2E3FGHIJ5LORVWXY/LB1D1

Departure

Time N/A
Airport Seattle–Tacoma International Airport (KSEA)

Arrival

Time 2026-05-04 15:24
Airport London Heathrow Airport (EGLL)
Time Latitude Longitude Altitude Speed Heading
2026-05-04 14:40 54.12963 -2.89962 39046 ft 479 kts 155°
2026-05-04 14:40 54.09902 -2.87722 39055 ft 480 kts 158°
2026-05-04 14:41 54.03723 -2.83391 39060 ft 481 kts 157°
2026-05-04 14:42 53.90966 -2.75848 39074 ft 489 kts 163°
2026-05-04 14:42 53.84476 -2.72503 39073 ft 491 kts 163°
2026-05-04 14:43 53.77962 -2.69105 39058 ft 487 kts 162°
2026-05-04 14:43 53.72566 -2.66272 39060 ft 483 kts 162°
2026-05-04 14:44 53.66150 -2.62908 39064 ft 483 kts 162°
2026-05-04 14:44 53.59771 -2.59577 39061 ft 482 kts 163°
2026-05-04 14:45 53.53357 -2.56240 39063 ft 482 kts 163°
2026-05-04 14:45 53.46957 -2.52921 39068 ft 482 kts 163°
2026-05-04 14:46 53.40544 -2.49606 39071 ft 482 kts 163°
2026-05-04 14:46 53.34174 -2.46323 39078 ft 481 kts 163°
2026-05-04 14:47 53.27775 -2.43035 39073 ft 481 kts 163°
2026-05-04 14:47 53.21370 -2.39755 39073 ft 481 kts 163°
2026-05-04 14:48 53.14971 -2.36487 39069 ft 481 kts 163°
2026-05-04 14:48 53.08576 -2.33231 39065 ft 480 kts 163°
2026-05-04 14:49 53.02222 -2.29800 39055 ft 480 kts 155°
2026-05-04 14:49 52.96498 -2.24120 39055 ft 480 kts 147°
2026-05-04 14:50 52.90951 -2.17963 39063 ft 479 kts 147°
2026-05-04 14:50 52.85400 -2.11972 39063 ft 479 kts 148°
2026-05-04 14:51 52.79764 -2.06072 39063 ft 479 kts 148°
2026-05-04 14:51 52.74151 -2.00255 38825 ft 468 kts 148°
2026-05-04 14:52 52.71397 -1.97406 38108 ft 468 kts 148°
2026-05-04 14:52 52.68626 -1.94544 37200 ft 471 kts 148°
2026-05-04 14:52 52.65838 -1.91667 36344 ft 474 kts 147°
2026-05-04 14:52 52.63038 -1.88784 35544 ft 474 kts 147°
2026-05-04 14:53 52.60235 -1.85903 34779 ft 474 kts 147°
2026-05-04 14:53 52.57475 -1.83069 34035 ft 474 kts 147°
2026-05-04 14:53 52.54678 -1.80201 33110 ft 474 kts 147°
2026-05-04 14:53 52.51883 -1.77335 32106 ft 475 kts 147°
2026-05-04 14:54 52.49067 -1.74452 31073 ft 478 kts 148°
2026-05-04 14:54 52.46241 -1.71563 30138 ft 478 kts 148°
2026-05-04 14:54 52.43436 -1.68702 29338 ft 471 kts 148°
2026-05-04 14:54 52.40673 -1.65889 28598 ft 463 kts 148°
2026-05-04 14:55 52.37954 -1.63124 27853 ft 456 kts 149°
2026-05-04 14:55 52.35279 -1.60407 27102 ft 450 kts 149°
2026-05-04 14:55 52.32634 -1.57724 26336 ft 446 kts 149°
2026-05-04 14:55 52.30003 -1.55060 25479 ft 444 kts 149°
2026-05-04 14:56 52.27380 -1.52406 24487 ft 445 kts 149°
2026-05-04 14:56 52.24740 -1.49740 23580 ft 445 kts 149°
2026-05-04 14:56 52.22112 -1.47088 22504 ft 444 kts 148°
2026-05-04 14:56 52.19589 -1.44197 21417 ft 443 kts 142°
2026-05-04 14:57 52.17239 -1.40961 20459 ft 442 kts 139°
2026-05-04 14:57 52.14967 -1.37625 19654 ft 436 kts 139°
2026-05-04 14:57 52.12735 -1.34342 18966 ft 429 kts 139°
2026-05-04 14:57 52.10517 -1.31140 18229 ft 424 kts 140°
2026-05-04 14:58 52.08335 -1.28053 17411 ft 419 kts 140°
2026-05-04 14:58 52.06154 -1.25008 17053 ft 405 kts 141°
2026-05-04 14:58 52.04034 -1.22069 16593 ft 396 kts 141°
2026-05-04 14:58 52.01950 -1.19187 16174 ft 391 kts 141°
2026-05-04 14:59 51.99888 -1.16336 15779 ft 387 kts 141°
2026-05-04 14:59 51.97859 -1.13535 15399 ft 378 kts 141°
2026-05-04 14:59 51.93923 -1.08106 14552 ft 366 kts 141°
2026-05-04 15:00 51.91991 -1.05446 14074 ft 362 kts 141°
2026-05-04 15:00 51.90081 -1.02817 13593 ft 359 kts 141°
2026-05-04 15:00 51.88190 -1.00220 13088 ft 355 kts 141°
2026-05-04 15:01 51.84724 -0.94743 12158 ft 344 kts 121°
2026-05-04 15:01 51.83688 -0.91362 11736 ft 338 kts 117°
2026-05-04 15:01 51.82686 -0.87935 11304 ft 336 kts 117°
2026-05-04 15:01 51.81676 -0.84537 10846 ft 334 kts 117°
2026-05-04 15:02 51.80665 -0.81173 10437 ft 331 kts 117°
2026-05-04 15:02 51.79652 -0.77837 10017 ft 329 kts 118°
2026-05-04 15:02 51.78647 -0.74546 9719 ft 323 kts 117°
2026-05-04 15:02 51.77667 -0.71345 9426 ft 309 kts 118°
2026-05-04 15:03 51.76744 -0.68337 9086 ft 289 kts 118°
2026-05-04 15:03 51.75861 -0.65471 8473 ft 282 kts 118°
2026-05-04 15:03 51.75014 -0.62724 8043 ft 274 kts 118°
2026-05-04 15:03 51.74160 -0.59961 7722 ft 272 kts 118°
2026-05-04 15:04 51.73317 -0.57240 7421 ft 270 kts 118°
2026-05-04 15:04 51.72469 -0.54549 7149 ft 265 kts 121°
2026-05-04 15:04 51.71490 -0.52123 7076 ft 252 kts 127°
2026-05-04 15:04 51.70469 -0.49858 7074 ft 249 kts 128°
2026-05-04 15:05 51.69452 -0.47612 7068 ft 248 kts 128°
2026-05-04 15:05 51.68461 -0.45407 7066 ft 244 kts 128°
2026-05-04 15:05 51.67455 -0.43157 7075 ft 245 kts 127°
2026-05-04 15:05 51.66464 -0.40920 7085 ft 246 kts 127°
2026-05-04 15:06 51.65479 -0.38687 7093 ft 250 kts 127°
2026-05-04 15:06 51.64470 -0.36401 7079 ft 250 kts 127°
2026-05-04 15:06 51.63471 -0.34131 7068 ft 246 kts 127°
2026-05-04 15:07 51.61493 -0.29708 6984 ft 247 kts 130°
2026-05-04 15:07 51.60396 -0.27508 6687 ft 252 kts 131°
2026-05-04 15:07 51.59292 -0.25319 6340 ft 253 kts 130°
2026-05-04 15:07 51.58187 -0.23119 6106 ft 252 kts 130°
2026-05-04 15:08 51.57107 -0.20899 5761 ft 256 kts 128°
2026-05-04 15:08 51.56055 -0.18593 5474 ft 254 kts 127°
2026-05-04 15:08 51.54998 -0.16262 5046 ft 259 kts 127°
2026-05-04 15:08 51.53931 -0.13923 4683 ft 259 kts 127°
2026-05-04 15:09 51.52626 -0.12054 4344 ft 252 kts 155°
2026-05-04 15:09 51.50931 -0.11538 4083 ft 249 kts 186°
2026-05-04 15:09 51.49296 -0.12284 3770 ft 247 kts 210°
2026-05-04 15:10 51.46664 -0.15569 3110 ft 229 kts 233°
2026-05-04 15:10 51.46101 -0.17750 3015 ft 201 kts 271°
2026-05-04 15:10 51.46454 -0.22071 2760 ft 200 kts 277°
2026-05-04 15:11 51.46540 -0.24300 2529 ft 201 kts 273°
2026-05-04 15:11 51.46549 -0.26562 2235 ft 205 kts 271°
2026-05-04 15:11 51.46539 -0.28877 1937 ft 209 kts 271°
2026-05-04 15:11 51.46530 -0.31211 1645 ft 211 kts 271°
2026-05-04 15:12 51.46525 -0.33512 1775 ft 208 kts 271°
2026-05-04 15:12 51.46518 -0.35977 1997 ft 228 kts 271°
2026-05-04 15:12 51.46511 -0.38539 2008 ft 232 kts 271°
2026-05-04 15:12 51.46502 -0.41137 1997 ft 232 kts 270°
2026-05-04 15:13 51.46178 -0.43623 2005 ft 232 kts 242°
2026-05-04 15:13 51.45037 -0.45439 2463 ft 234 kts 208°
2026-05-04 15:13 51.43490 -0.46091 2771 ft 227 kts 183°
2026-05-04 15:13 51.41898 -0.46179 2918 ft 236 kts 181°
2026-05-04 15:14 51.40236 -0.46255 2981 ft 237 kts 179°
2026-05-04 15:14 51.38683 -0.45621 2973 ft 233 kts 144°
2026-05-04 15:14 51.37513 -0.43937 2997 ft 230 kts 136°
2026-05-04 15:14 51.36254 -0.42232 3001 ft 239 kts 141°
2026-05-04 15:15 51.34909 -0.40613 3005 ft 243 kts 142°
2026-05-04 15:15 51.33548 -0.39014 2992 ft 240 kts 138°
2026-05-04 15:15 51.32600 -0.36898 2995 ft 236 kts 107°
2026-05-04 15:16 51.32734 -0.31757 3004 ft 235 kts 75°
2026-05-04 15:16 51.33158 -0.29207 3009 ft 239 kts 74°
2026-05-04 15:16 51.34024 -0.24026 2984 ft 239 kts 75°
2026-05-04 15:17 51.34436 -0.21481 2988 ft 234 kts 75°
2026-05-04 15:17 51.35229 -0.16471 2996 ft 231 kts 75°
2026-05-04 15:17 51.35621 -0.13982 2994 ft 230 kts 73°
2026-05-04 15:18 51.36353 -0.11729 3005 ft 235 kts 44°
2026-05-04 15:18 51.37782 -0.10469 3014 ft 240 kts 10°
2026-05-04 15:18 51.39450 -0.10406 2997 ft 241 kts 358°
2026-05-04 15:19 51.42762 -0.10657 2998 ft 239 kts 358°
2026-05-04 15:19 51.44382 -0.11119 2989 ft 238 kts 336°
2026-05-04 15:19 51.46148 -0.15076 2996 ft 216 kts 282°
2026-05-04 15:20 51.46361 -0.17394 2982 ft 205 kts 278°
2026-05-04 15:20 51.46510 -0.19653 2790 ft 203 kts 275°
2026-05-04 15:20 51.46557 -0.21902 2655 ft 199 kts 271°
2026-05-04 15:20 51.46555 -0.24064 2499 ft 191 kts 272°
2026-05-04 15:21 51.46548 -0.26168 2239 ft 184 kts 272°
2026-05-04 15:21 51.46541 -0.28172 1991 ft 174 kts 271°
2026-05-04 15:21 51.46529 -0.31788 1588 ft 155 kts 272°
2026-05-04 15:22 51.46524 -0.33539 1369 ft 158 kts 272°
2026-05-04 15:22 51.46518 -0.35263 1151 ft 156 kts 272°
2026-05-04 15:22 51.46508 -0.38732 712 ft 155 kts 273°
2026-05-04 15:23 51.46501 -0.40429 485 ft 150 kts 272°
2026-05-04 15:23 51.46498 -0.42094 291 ft 148 kts 272°
2026-05-04 15:23 51.46491 -0.43726 119 ft 145 kts 272°
2026-05-04 15:23 51.46489 -0.45221 92 ft 119 kts 270°
2026-05-04 15:24 51.46482 -0.46894 95 ft 36 kts 270°
2026-05-04 15:24 51.46527 -0.47486 94 ft 16 kts 333°
2026-05-04 15:25 51.46624 -0.47493 94 ft 11 kts 16°
2026-05-04 15:25 51.46648 -0.47469 96 ft 4 kts 46°
2026-05-04 15:25 51.46654 -0.47423 95 ft 4 kts 86°
2026-05-04 15:26 51.46656 -0.47329 94 ft 4 kts 89°
2026-05-04 15:26 51.46656 -0.47282 94 ft 4 kts 90°
2026-05-04 15:26 51.46656 -0.47188 94 ft 4 kts 90°
2026-05-04 15:27 51.46656 -0.47141 94 ft 4 kts 90°
2026-05-04 15:27 51.46656 -0.47046 94 ft 5 kts 89°
2026-05-04 15:28 51.46657 -0.46828 95 ft 10 kts 89°
2026-05-04 15:28 51.46658 -0.46712 95 ft 10 kts 90°
2026-05-04 15:28 51.46661 -0.46486 92 ft 9 kts 76°
2026-05-04 15:29 51.46680 -0.46437 95 ft 6 kts 42°
2026-05-04 15:30 51.46862 -0.46521 96 ft 4 kts 325°
2026-05-04 15:30 51.46932 -0.46548 95 ft 4 kts 54°
2026-05-04 15:31 51.46959 -0.46482 94 ft 2 kts 56°
2026-05-04 15:31 51.46963 -0.46471 95 ft 1 kts 56°
2026-05-04 15:32 51.46965 -0.46468 95 ft 0 kts 56°